Location: Newark
(35.0589°N, 135.9944°E)
Time: 00:14:22
(UTC+00:00)

Hubble Space Telescope - Pass Details

Date: 30 September 2019
Orbit: 536 x 540 km, 28.5° (Epoch: 21 October)

Event Time Altitude Azimuth Distance (km) Brightness Sun altitude
Rises 10:17:50 0° 226° (SW) 2,670 4.8 -20.3°
Reaches altitude 10° 10:20:37 10° 207° (SSW) 1,780 3.6 -20.8°
Enters shadow 10:22:27 17° 182° (S) 1,402 2.8 -21.2°
